Reflectivity
-20 -20 -2 -20 -20 -20 -20 -20 -20 -20 -5 -20 -20 -20 -20 -20 -20 -20 -20 -20 -20 -20 -20 -20 -20 -20 -20 -20 -20 -20 -20 -20 -20 -20 -20 -20 -20 -20 -20 -20 -20 -20 -20 -20
-2 -11 -20 -20 -20 7 -19 -20 -20 -20 -20 18 -7 -13 -20 -20 -20 -20 -20 -20 -20 -20 -20 -20 -20 -20 -20 -20 -20 -20 -20 -20 -20 -20 -20 -20 -20 -20 -20 -20 -20 -20 -20 -20
-20 -20 -20 -20 -20 -19 -10 -20 -20 -20 -20 -20 -11 -19 -20 -20 -20 -20 -20 -20 -20 -20 -20 -20 -20 -20 -20 -20 -20 -20 -20 -20 -20 -20 -20 -20 -20 -20 -20 -20 -20 -20 -20 -20
-1 -20 -20 -20 -20 -20 -4 -20 -20 -20 12 5 -0 9 -20 -20 -20 -20 -20 -20 -20 -20 -20 -20 -20 -20 -20 -20 -20 -20 -20 -20 -20 -20 -20 -20 -20 -20 -20 -20 -20 -20 -20 -20
-8 -20 -20 -20 -20 -5 -17 -20 -20 -6 -12 9 5 23 6 -20 -20 -20 -20 -20 -20 -20 -20 -20 -20 -20 -20 -20 -20 -20 -20 -20 -20 -20 -20 -20 -20 -20 -20 -20 -20 -20 -20 -20
4 -14 -10 -20 -20 -20 -20 -20 -20 7 15 20 -11 36 11 -20 -20 -20 -20 -20 -20 -20 -20 -20 -20 -20 -20 -20 -20 -20 -20 -20 -20 -20 -20 -20 -20 -20 -20 -20 -20 -20 -20 -20
16 -15 -20 -20 -17 4 18 9 10 13 12 -12 -19 12 28 -20 -20 -20 -20 -20 -20 -20 -20 -20 -20 -20 -20 -20 -20 -20 -20 -20 -20 -20 -20 -20 -20 -20 -20 -20 -20 -20 -20 -20
10 -17 -20 -20 -20 -17 -16 -19 -7 -8 -20 -20 -20 28 26 -20 -20 -20 -20 -20 -20 -20 -20 -20 -20 -20 -20 -20 -20 -20 -20 -20 -20 -20 -20 -20 -20 -20 -20 -20 -20 -20 -20 -20
-1 -20 -20 -20 -20 -9 24 6 -20 -7 -5 2 32 15 11 -20 -20 -20 -20 -20 -20 -20 -20 -20 -20 -20 -20 -20 -20 -20 -20 -20 -20 -20 -20 -20 -20 -20 -20 -20 -20 -20 -20 -20
-18 -8 8 19 35 9 21 -1 3 32 29 16 32 -15 -20 -20 -20 -20 -20 -20 -20 -20 -20 -20 -20 -20 -20 -20 -20 -20 -20 -20 -20 -20 -20 -20 -20 -20 -20 -20 -20 -20 -20 -20
-8 9 10 29 32 5 21 25 8 11 16 17 1 -20 -20 -20 -20 -20 -20 -20 -20 -20 -20 -20 -20 -20 -20 -20 -20 -20 -20 -20 -20 -20 -20 -20 -20 -20 -20 -20 -20 -20 -20 -20
-0 32 16 -0 32 3 10 15 22 16 37 15 -20 -20 -20 -20 -20 -20 -20 -20 -20 -20 -20 -20 -20 -20 -20 -20 -20 -20 -20 -20 -20 -20 -20 -20 -20 -20 -20 -20 -20 -20 -20 -20
14 22 5 6 24 9 -9 27 39 39 29 -5 -20 -20 -20 -20 -20 -20 -20 -20 -20 -20 -20 -20 -20 -20 -20 -20 -20 -20 -20 -20 -20 -20 -20 -20 -20 -20 -20 -20 -20 -20 -20 -20
14 29 14 16 18 9 -4 10 37 42 30 -10 -8 -14 -20 -20 -20 -20 -20 -20 -20 -20 -20 -20 -20 -20 -20 -20 -20 -20 -20 -20 -20 -20 -20 -20 -20 -20 -20 -20 -20 -20 -20 -20
30 39 39 25 0 16 27 35 24 18 13 12 -13 -13 -20 -20 -20 -20 -20 -20 -20 -20 -20 -20 -20 -20 -20 -20 -20 -20 -20 -20 -20 -20 -20 -20 -20 -20 -20 -20 -20 -20 -20 -20
26 39 23 21 -15 7 18 22 19 13 -6 -16 -20 -20 -20 -20 -20 -20 -20 -20 -20 -20 -20 -20 -20 -20 -20 -20 -20 -20 -20 -20 -20 -20 -20 -20 -20 -20 -20 -20 -20 -20 -20 -20
8 30 24 16 24 9 9 -18 7 8 14 -2 -19 -15 -20 -20 -20 -20 -20 -20 -20 -20 -20 -20 -20 -20 -20 -20 -20 -20 -20 -20 -20 -20 -20 -20 -20 -20 -20 -20 -20 -20 -20 -20
-7 7 8 -20 -16 -19 -20 -20 -20 -19 -20 -18 -1 -5 -20 -20 -20 -20 -20 -20 -20 -20 -20 -20 -20 -20 -20 -20 -20 -20 -20 -20 -20 -20 -20 -20 -20 -20 -20 -20 -20 -20 -20 -20
-20 -20 15 -20 -20 -20 -20 -20 -20 -20 -20 -20 -20 -20 -20 -20 -20 -20 -20 -20 -20 -20 -20 -20 -20 -20 -20 -20 -20 -20 -20 -20 -20 -20 -20 -20 -20 -20 -20 -20 -20 -20 -20 -20
3 -10 -20 -20 -20 -20 -20 -20 -20 -20 -20 -20 -20 -20 -20 -20 -20 -20 -20 -20 -20 -20 -20 -20 -20 -20 -20 -20 -20 -20 -20 -20 -20 -20 -20 -20 -20 -20 -20 -20 -20 -20 -20 -20
-2 6 -17 -20 -20 -20 -20 -20 -20 -20 -20 -20 -20 -20 -20 -20 -20 -20 -20 -20 -20 -20 -20 -20 -20 -20 -20 -20 -20 -20 -20 -20 -20 -20 -20 -20 -20 -20 -20 -20 -20 -20 -20 -20
-8 -8 9 -15 -20 -20 -20 -20 -20 -20 -20 -20 -20 -20 -20 -20 -20 -20 -20 -20 -20 -20 -20 -20 -20 -20 -20 -20 -20 -20 -20 -20 -20 -20 -20 -20 -20 -20 -20 -20 -20 -20 -20 -20
-20 -20 -19 -20 -20 -20 -20 -20 -20 -20 -20 -20 -20 -20 -20 -20 -20 -20 -20 -20 -20 -20 -20 -20 -20 -20 -20 -20 -20 -20 -20 -20 -20 -20 -20 -20 -20 -20 -20 -20 -20 -20 -20 -20
-20 -20 -20 -20 -20 -20 -20 -20 -20 -20 -20 -20 -20 -20 -20 -20 -20 -20 -20 -20 -20 -20 -20 -20 -20 -20 -20 -20 -20 -20 -20 -20 -20 -20 -20 -20 -20 -20 -20 -20 -20 -20 -20 -20
-20 -20 -20 -20 -20 -20 -20 -20 -20 -20 -20 -20 -20 -20 -20 -20 -20 -20 -20 -20 -20 -20 -20 -20 -20 -20 -20 -20 -20 -20 -20 -20 -20 -20 -20 -20 -20 -20 -20 -20 -20 -20 -20 -20
-20 -20 -20 -20 -20 -20 -20 -20 -20 -20 -20 -20 -20 -20 -20 -20 -20 -20 -20 -20 -20 -20 -20 -20 -20 -20 -20 -20 -20 -20 -20 -20 -20 -20 -20 -20 -20 -20 -20 -20 -20 -20 -20 -20
Wind_Speed
6 8 9 12 14 8 5 8 11 6 9 10 18 18 20 15 15 10 9 8 7 8 7 8 6 6 6 5 6 6 8 7 10 8 7 6 5 6 7 8 9 8 7 8
7 18 12 8 10 10 13 13 20 15 14 12 14 20 23 17 13 13 11 9 11 8 8 8 7 7 7 6 6 7 8 8 8 7 5 5 5 5 6 5 7 7 7 6
18 3 20 14 12 13 15 16 16 16 14 16 10 17 23 15 19 14 11 9 17 18 14 9 9 8 7 8 7 8 8 11 11 13 10 8 6 4 4 4 4 4 6 7
15 20 13 15 18 12 17 13 15 17 12 12 3 9 17 17 14 9 12 9 18 12 11 10 12 8 8 6 7 8 8 10 9 9 10 9 5 5 2 3 3 4 6 6
9 10 19 21 20 13 19 5 11 12 14 15 18 9 8 8 20 19 17 11 17 17 18 16 15 11 8 7 7 7 8 8 7 8 9 7 7 4 3 4 6 6 5 6
15 2 5 14 14 11 2 1 12 8 9 13 20 15 7 9 20 21 13 16 17 16 14 14 13 13 8 7 8 7 11 8 9 9 8 9 9 7 6 4 5 4 3 4
6 15 2 4 2 2 5 5 4 6 7 15 11 14 16 5 11 13 17 20 19 17 17 17 16 13 8 8 8 8 10 9 9 10 9 9 8 8 8 5 4 4 2 2
5 5 13 12 20 10 14 15 8 8 9 8 11 9 9 20 8 11 19 23 20 18 16 16 16 13 9 9 8 9 10 9 9 9 8 7 8 5 5 5 4 3 2 2
5 7 2 8 13 20 11 16 25 7 5 5 6 9 5 2 8 17 19 20 19 18 17 17 15 13 10 8 9 10 10 8 8 8 7 7 7 7 6 6 4 3 2 2
2 8 7 14 14 16 14 15 12 6 7 5 10 5 6 7 10 15 19 19 16 16 16 15 14 13 8 9 8 9 9 9 8 8 7 6 7 6 6 5 5 4 3 3
8 6 5 1 8 16 10 4 8 2 7 4 6 6 5 13 15 17 17 18 18 18 16 15 14 13 10 9 10 9 9 9 8 7 7 7 6 6 6 5 4 4 3 4
10 3 5 10 8 12 10 13 13 8 12 6 5 4 4 9 10 13 14 15 15 16 15 14 15 13 13 11 10 10 8 8 7 7 7 7 6 6 6 4 4 4 4 4
10 4 4 4 4 9 11 13 8 9 14 4 6 4 2 7 8 8 14 14 14 15 15 15 14 14 12 11 10 9 8 8 7 7 7 6 6 6 4 3 4 4 4 5
12 6 8 4 3 6 7 14 14 14 4 1 2 7 2 4 8 9 14 16 16 17 17 15 13 13 11 10 10 9 8 7 7 7 7 6 5 4 3 3 3 3 4 5
7 6 9 13 16 8 8 12 19 15 7 5 4 5 9 10 10 10 13 14 15 16 17 17 16 13 11 11 9 9 8 7 7 7 7 6 4 4 3 3 3 4 5 5
9 6 11 10 7 14 9 14 9 7 4 2 3 3 2 4 7 7 14 17 17 15 15 14 15 14 13 12 11 11 9 7 8 7 6 5 4 3 2 2 3 5 6 6
8 4 5 3 5 7 3 10 5 4 2 5 2 5 5 6 8 9 10 15 16 15 15 16 16 14 13 12 13 12 9 8 7 7 6 5 4 2 2 3 4 6 6 6
6 1 3 4 4 1 5 3 8 13 5 7 2 3 3 8 5 6 2 11 14 15 15 15 13 11 12 10 12 11 9 8 7 6 5 4 3 2 3 4 5 5 4 5
5 4 2 2 3 5 4 4 2 7 7 3 10 6 11 8 6 9 8 5 6 8 9 8 9 12 13 13 12 12 9 8 7 6 5 4 3 2 3 4 5 5 4 5
6 2 2 2 1 2 3 4 2 0 2 3 1 8 15 7 5 3 4 9 13 13 12 14 14 14 15 11 12 12 8 7 6 5 5 3 2 1 3 4 6 3 4 5
4 2 5 2 1 8 5 4 4 3 4 5 3 9 9 6 2 10 8 11 11 12 15 14 13 12 12 10 11 10 7 7 5 5 4 2 1 2 4 4 3 4 5 6
6 5 3 3 2 7 2 2 2 4 3 4 7 10 16 15 15 13 12 11 13 13 12 12 13 11 8 8 10 8 7 6 5 4 3 1 2 3 3 4 5 6 6 6
5 7 7 8 7 1 3 3 2 3 4 3 10 9 17 16 13 12 11 11 10 11 10 9 11 10 7 7 8 8 6 6 5 4 2 1 3 4 3 5 6 5 5 5
3 4 4 3 4 3 3 2 3 4 7 8 10 12 13 17 12 12 11 9 9 9 9 9 11 9 7 6 7 7 6 6 5 3 1 3 3 4 5 4 4 4 4 5
5 6 5 1 1 3 1 2 7 9 11 12 10 11 13 16 12 12 10 8 7 7 7 8 9 8 7 7 7 6 6 6 4 2 1 3 3 5 5 4 4 4 4 6
5 7 5 6 8 5 4 8 9 13 10 11 15 10 7 10 12 11 9 7 7 8 6 7 7 8 7 7 6 6 5 5 4 2 2 3 3 4 3 4 5 8 13 17
Wind_Direction
220 213 209 221 227 226 291 280 280 286 243 224 238 245 256 250 248 243 236 244 169 156 166 137 126 114 113 93 117 121 112 112 108 106 104 88 88 87 76 76 69 62 59 55
256 240 210 213 227 231 246 269 271 288 271 270 252 239 242 238 229 227 221 230 151 155 148 137 123 93 76 86 81 76 81 84 99 101 97 103 107 81 87 83 74 70 64 57
221 216 196 214 222 221 230 232 251 259 300 290 279 271 252 242 231 222 220 211 163 165 156 141 121 109 97 86 88 92 94 102 103 108 106 98 80 65 68 67 79 74 73 63
237 235 239 216 233 212 239 238 257 265 278 261 343 272 250 229 229 207 219 168 168 164 143 142 125 114 110 100 87 86 94 103 104 114 114 117 121 127 128 124 115 89 74 62
215 179 208 221 229 210 252 246 280 274 252 280 271 256 262 197 228 230 220 166 167 162 153 143 131 125 112 102 95 90 88 85 100 103 111 113 106 107 99 94 98 90 66 58
242 235 206 223 229 203 242 356 283 273 271 251 243 246 248 206 216 225 203 160 158 151 140 130 122 116 114 109 100 92 93 83 86 95 97 108 115 110 96 86 84 76 76 52
190 241 188 151 212 208 154 144 255 218 215 242 199 234 255 220 231 186 159 161 154 147 141 137 132 129 128 126 118 108 102 92 89 92 94 101 103 97 101 95 94 82 55 39
170 266 185 189 208 183 194 191 208 200 209 250 171 221 237 245 264 145 152 150 145 144 143 142 137 135 136 139 127 114 111 107 97 95 96 94 97 98 95 100 98 89 78 79
180 250 203 211 197 192 191 205 210 303 282 192 205 236 311 57 105 127 137 143 149 147 148 143 140 144 145 143 137 131 122 114 107 107 101 98 100 99 104 99 92 91 57 54
159 278 218 264 210 194 229 178 176 180 256 164 208 199 199 179 149 142 147 151 150 147 145 144 145 146 145 142 134 125 123 124 124 116 113 111 112 110 108 96 86 71 52 31
177 219 198 350 217 182 184 195 207 245 236 236 156 235 208 175 162 157 162 161 155 153 151 148 147 146 141 137 137 133 126 126 122 119 118 112 109 106 98 93 80 64 46 22
194 214 257 244 246 191 181 180 195 188 223 208 127 290 359 160 164 157 160 158 152 150 146 144 145 142 144 144 140 140 131 127 129 129 121 114 110 99 91 83 68 50 29 5
158 216 274 233 236 165 181 204 213 230 273 233 112 216 5 93 139 152 146 150 144 143 144 144 143 148 150 146 145 138 132 131 131 125 119 112 102 98 95 79 51 30 8 347
150 214 229 262 17 157 188 187 213 237 243 276 82 117 140 148 147 136 150 155 152 154 152 148 148 153 152 149 146 136 134 131 129 119 117 112 113 113 105 73 38 11 346 330
183 279 226 240 243 228 195 207 200 219 251 74 183 123 192 186 177 164 150 143 145 156 157 158 158 156 152 146 139 136 133 128 125 116 113 127 127 115 94 58 13 339 331 321
167 274 309 353 129 194 186 230 200 206 231 218 123 322 206 105 109 128 156 156 162 162 159 157 155 155 158 155 144 138 136 130 120 120 130 132 119 97 76 16 343 337 330 322
181 246 333 352 164 138 316 231 171 262 355 173 175 207 100 142 170 167 160 163 159 160 158 160 160 161 156 149 141 141 136 125 120 127 136 128 115 90 23 346 351 338 322 319
184 248 272 312 42 126 244 143 195 207 212 217 260 136 142 125 93 49 295 154 159 159 157 156 155 143 138 128 127 126 123 123 126 131 133 137 131 92 11 351 337 319 307 314
174 163 359 40 293 281 22 3 89 172 244 207 196 163 128 146 94 21 3 72 138 135 134 128 124 125 122 124 125 121 121 120 122 138 143 131 115 46 348 326 310 303 300 302
115 126 119 34 47 209 243 291 308 288 293 353 19 170 157 169 127 179 2 75 77 84 101 106 108 110 111 122 125 121 125 124 132 134 137 126 87 1 308 297 300 274 278 290
143 143 152 190 335 293 252 304 314 110 241 317 244 179 151 125 163 132 106 70 76 89 96 96 98 108 118 118 120 120 120 123 136 129 117 97 34 314 286 297 279 290 319 316
168 140 165 113 93 281 164 28 128 207 12 61 58 95 94 105 101 103 99 97 99 98 93 100 106 110 110 110 112 111 119 143 127 121 109 30 327 302 313 304 319 333 320 303
194 175 173 180 207 269 27 124 180 146 125 94 108 105 114 111 108 108 108 104 99 103 103 104 108 98 87 102 118 123 149 131 127 104 70 340 323 317 333 344 331 318 309 304
248 161 185 127 201 188 125 8 51 113 110 104 112 117 120 118 118 113 111 110 110 110 114 113 112 108 103 109 111 119 129 122 106 98 25 329 338 350 354 342 309 300 308 316
198 135 174 270 3 55 257 178 125 103 104 101 94 112 122 119 117 124 124 118 116 115 117 120 123 124 122 110 110 118 116 111 108 106 0 1 4 2 327 305 297 314 296 319
189 177 169 218 186 170 175 144 136 119 121 122 118 101 88 119 121 124 121 124 124 124 121 118 122 122 128 121 120 118 117 118 128 86 18 351 343 319 309 306 316 329 331 329